Change the Weather History Date:

Saturday, November 10, 2012

  Actual Average Record
Temperature  
Mean Temperature 38 °F 45 °F  
Max Temperature 48 °F 51 °F 65 °F (1976)
Min Temperature 27 °F 39 °F 23 °F (1982)
Degree Days  
Heating Degree Days 27 20  
Month to date heating degree days 190  
Since 1 July heating degree days 1280  
Cooling Degree Days 0 0  
Month to date cooling degree days 0  
Year to date cooling degree days 19  
Moisture  
Dew Point 28 °F    
Average Humidity 72    
Maximum Humidity 89    
Minimum Humidity 32    
Precipitation  
Precipitation 0.00 in 0.52 in 2.10 in (2006)
Month to date precipitation 4.93  
Year to date precipitation 75.96  
Sea Level Pressure  
Sea Level Pressure 30.09 in    
Wind  
Wind Speed 4 mph (East)    
Max Wind Speed 9 mph    
Max Gust Speed 10 mph    
Visibility 7 miles    
Events      
T = Trace of Precipitation, MM = Missing Value Source: NWS Daily Summary

Daily Weather History Graph

Daily Weather History Graph

Search for Another Location

Airport or City:

Trip Planner

Search our weather history database for the weather conditions in past years. The results will help you decide how hot, cold, wet, or windy it might be!

Date:

Astronomy

Nov. 10, 2012 Rise Set
Actual Time 7:17 AM PST 4:46 PM PST
Civil Twilight 6:44 AM PST 5:19 PM PST
Nautical Twilight 6:07 AM PST 5:56 PM PST
Astronomical Twilight 5:30 AM PST 6:33 PM PST
Moon 3:14 AM PST (11/10) 2:48 PM PST (11/10)
Length of Visible Light 10h 35m
Length of Day
9h 28m
Waning Crescent, 13% of the Moon is Illuminated
Nov 10
Waning Crescent
Nov 13
New
Nov 20
First Quarter
Nov 28
Full
Dec 6
Last Quarter

Hourly Weather History & Observations

Time (PST) Temp. Windchill Dew Point Humidity Pressure Visibility Wind Dir Wind Speed Gust Speed Precip Events Conditions
12:53 AM 30.9 °F 26.2 °F 26.1 °F 82% 29.97 in 7.0 mi NE 4.6 mph - N/A   Mostly Cloudy
1:53 AM 30.0 °F - 27.0 °F 88% 29.98 in 7.0 mi Calm Calm - N/A   Overcast
2:53 AM 30.0 °F 24.1 °F 26.1 °F 85% 29.99 in 7.0 mi ENE 5.8 mph - N/A   Overcast
3:53 AM 30.9 °F - 27.0 °F 85% 29.99 in 7.0 mi Calm Calm - N/A   Mostly Cloudy
4:53 AM 28.9 °F 22.8 °F 26.1 °F 89% 30.01 in 7.0 mi ENE 5.8 mph - N/A   Overcast
5:53 AM 30.9 °F 25.2 °F 27.0 °F 85% 30.02 in 7.0 mi ENE 5.8 mph - N/A   Overcast
6:53 AM 30.0 °F 26.5 °F 25.0 °F 82% 30.03 in 7.0 mi East 3.5 mph - N/A   Clear
7:53 AM 28.0 °F - 24.1 °F 85% 30.06 in 5.0 mi Calm Calm - N/A   Mostly Cloudy
8:53 AM 35.1 °F 31.0 °F 28.9 °F 78% 30.07 in 6.0 mi East 4.6 mph - N/A   Haze
9:53 AM 39.9 °F 35.8 °F 30.0 °F 68% 30.09 in 6.0 mi East 5.8 mph - N/A   Haze
10:53 AM 41.0 °F 39.0 °F 30.9 °F 67% 30.11 in 6.0 mi East 3.5 mph - N/A   Haze
11:53 AM 44.1 °F 40.8 °F 28.9 °F 55% 30.11 in 7.0 mi East 5.8 mph - N/A   Mostly Cloudy
12:53 PM 46.9 °F - 28.0 °F 48% 30.10 in 7.0 mi Calm Calm - N/A   Clear
1:53 PM 48.0 °F - 28.9 °F 48% 30.10 in 7.0 mi Calm Calm - N/A   Clear
2:53 PM 46.9 °F - 21.9 °F 37% 30.12 in 6.0 mi SW 5.8 mph - N/A   Haze
3:53 PM 45.0 °F 43.5 °F 25.0 °F 46% 30.12 in 6.0 mi SSW 3.5 mph - N/A   Haze
4:53 PM 37.0 °F - 30.0 °F 76% 30.14 in 5.0 mi Calm Calm - N/A   Haze
5:53 PM 34.0 °F - 28.0 °F 79% 30.15 in 7.0 mi Calm Calm - N/A   Partly Cloudy
6:53 PM 35.1 °F 30.1 °F 28.0 °F 76% 30.16 in 7.0 mi East 5.8 mph - N/A   Partly Cloudy
7:53 PM 33.8 °F 27.7 °F 28.4 °F 81% 30.15 in 7.0 mi East 6.9 mph - N/A   Clear
8:53 PM 34.0 °F 28.8 °F 28.0 °F 79% 30.17 in 7.0 mi East 5.8 mph - N/A   Clear
9:53 PM 34.0 °F 29.8 °F 28.9 °F 82% 30.17 in 7.0 mi East 4.6 mph - N/A   Clear
10:53 PM 34.0 °F 29.8 °F 28.9 °F 82% 30.16 in 7.0 mi ENE 4.6 mph - N/A   Clear
11:53 PM 34.0 °F 28.0 °F 28.9 °F 82% 30.17 in 7.0 mi ENE 6.9 mph - N/A   Clear